OBJECT AA, 66690

Orbit data source: Space-Track

You're viewing an Uncataloged Satellite

Recently launched and/or uncataloged satellites may have evolving metadata. Metadata may include but not limited to: Owner, Maufacturer, Bus, Motor, and Mission.

OBJECT AA, 66690 is a satellite in SSO that was launched on Fri, 28 Nov 2025 UTC via an FALCON 9 launch vehicle from the Air Force Western Test Range (AFWTR). Unknown objects in Earth's orbit typically refer to objects detected orbiting the Earth but have not yet been identified or cataloged. These objects could be anything from previously untracked satellites, spent rocket stages, debris from satellite collisions, or even natural meteoroids temporarily captured by Earth's gravity.

Loading next visibility...
Identifier
66690, 2025-276AA
Orbit
SSO
Country
Flag of TBDTBD
Related business
None
Manufacturer
Unknown
Mission
Operational Commercial Technology
Bus & Motor
Unknown
Mass
Unknown
Launch date (UTC)
2025-11-28 (6 months ago)
Launch vehicle
FALCON 9
Launch site
Air Force Western Test Range (AFWTR)
Object type
Unknown
Shape & HBR
Box, 0.1 m
Radar Cross Section
0.035 m²

Expand to show TLE details & history
Last TLE update: 11 hours ago

TLE from 11 hours ago
0 OBJECT AA
1 66690U 25276AA  26144.75990223  .00003984  00000-0  19464-3 0  9994
2 66690  97.4187 218.5197 0006421  86.0674 274.1294 15.18808330 26859
Epoch: 2026-05-24T18:14Z
TLE epoch observation values (Epoch: 2026-05-24T18:14:15.552Z)
Latitude
-0.00008°
Longitude
62.59748°
Altitude
512.214 km
Speed
7.608 km/s
True Right ascension
14h 34m 04s
True Declination
0° 00' 00"
Sunlit
Object was in full shadow at epoch
Visualization orbit readout
Latitude
Unknown
Longitude
Unknown
Altitude
Unknown
Speed
Unknown
Apparent Right ascension
Unknown
Apparent Declination
Unknown
Sunlit
N/A
Visualization observer readout
Local Sidereal Time
14:32:30
Azimuth
Unknown
Elevation
Unknown
Doppler factor
Unknown
Orbital elements
Apogee altitude
510.829 km
Perigee altitude
501.988 km
Semi-major axis
6,884.546 km
Eccentricity
0.00064
Inclination
97.4187°
RAAN
218.5197°
Arg. of periapsis
86.0674°
True anomaly
274.05601°
Mean anomaly
274.1294°
Eccentric anomaly
274.0927°
Mean motion
3.79953 °/min
Orbital period
94.75 mins
BSTAR
0.00019464
Loading maneuver chart data...
Computing Atmospheric mass density...
Loading historical data...
Loading historical data...
Loading historical data...
Loading historical data...
Loading historical data...
Loading historical data...
Loading historical data...

Documentation

Showing up to 5 results
|